This demonstration page uses our WeatherBlox Daily Observations layout. Learn more.

Left ArrowRight Arrow

Hourly Observations for March 8, 2018

Temp ( °F °C ) Dew Point ( °F °C ) Humidity (%) Winds ( mph kmh ) Pressure ( in mb ) Visibility ( mi km ) Precip ( " mm )
12:54 am 00:54 Clear 21 -6.1 15 -9.4 78 78 WNW 3 6 30.30 1026 10 16 0.00 0.00
1:54 am 01:54 Clear 20 -6.7 16 -8.9 85 85 Calm 30.30 1026 10 16 0.00 0.00
2:54 am 02:54 Clear 19 -7.2 14 -10 81 81 Calm 30.28 1025 10 16 0.00 0.00
3:54 am 03:54 Clear 18 -7.8 13 -10.6 81 81 WNW 5 7 30.28 1026 10 16 0.00 0.00
4:54 am 04:54 Clear 17 -8.3 12 -11.1 80 80 Calm 30.28 1026 10 16 0.00 0.00
5:54 am 05:54 Clear 13 -10.6 9 -12.8 84 84 NNW 3 6 30.29 1026 10 16 0.00 0.00
6:54 am 06:54 Sunny 16 -8.9 11 -11.7 80 80 Calm 30.28 1025 10 16 0.00 0.00
7:54 am 07:54 Sunny 19 -7.2 14 -10 81 81 Calm 30.28 1026 10 16 0.00 0.00
8:54 am 08:54 Sunny 24 -4.4 18 -7.8 77 77 VRB 6 9 30.27 1025 10 16 0.00 0.00
9:54 am 09:54 Sunny 27 -2.8 18 -7.8 69 69 Calm 30.26 1025 10 16 0.00 0.00
10:54 am 10:54 Sunny 30 -1.1 16 -8.9 56 56 Calm 30.24 1024 10 16 0.00 0.00
11:54 am 11:54 Sunny 34 1.1 16 -8.9 48 48 NNW 3 6 30.23 1024 10 16 0.00 0.00
12:54 pm 12:54 Sunny 36 2.2 15 -9.4 42 42 WSW 3 6 30.18 1022 10 16 0.00 0.00
1:54 pm 13:54 Sunny 40 4.4 14 -10 35 35 ENE 3 6 30.14 1021 10 16 0.00 0.00
2:54 pm 14:54 Sunny 42 5.6 14 -10 32 32 SE 3 6 30.10 1019 10 16 0.00 0.00
3:54 pm 15:54 Sunny 43 6.1 13 -10.6 29 29 Calm 30.07 1018 10 16 0.00 0.00
4:54 pm 16:54 Sunny 44 6.7 13 -10.6 28 28 Calm 30.08 1019 10 16 0.00 0.00
5:54 pm 17:54 Sunny 43 6.1 13 -10.6 29 29 Calm 30.09 1019 10 16 0.00 0.00
6:54 pm 18:54 Clear 36 2.2 19 -7.2 50 50 ENE 9 15 30.08 1019 10 16 0.00 0.00
7:54 pm 19:54 Clear 34 1.1 22 -5.6 61 61 E 12 19 30.06 1018 10 16 0.00 0.00
8:54 pm 20:54 Clear 31 -0.6 21 -6.1 67 67 SE 5 7 30.05 1018 10 16 0.00 0.00
9:54 pm 21:54 Clear 31 -0.6 21 -6.1 67 67 ESE 5 7 30.03 1017 10 16 0.00 0.00
10:54 pm 22:54 Clear 29 -1.7 19 -7.2 66 66 ESE 5 7 30.03 1017 10 16 0.00 0.00
11:54 pm 23:54 Clear 30 -1.1 20 -6.7 66 66 SE 7 11 30.00 1016 10 16 0.00 0.00

Powered by AerisWeather